Погода в Михайловке

Украина / Запорожская область     47˚16′05″N   35˚13′43″E
темп.,
°C
ветер,
м/с
пор.,
м/с
влажн.,
%
обл.,
%
осадки,
мм/ч
давл.,
гПа
погр.,
м
17 января, вс
вс1723:00−8˚всв1279100 0.0 101625
02:00−8˚св3382100 0.0 101470
05:00−8˚св4684100 0.0 1013194
08:00−10˚ссв589297 0.0 1013277
11:00−10˚с6891100 0.0 1013272
14:00−9˚с61088100 0.0 1011391
17:00−10˚ссв5891100 0.2 1013369
20:00−11˚с6994100 1.6 1013329
18 января, пн
пн1823:00−11˚с5794100 1.7 1014280
02:00−11˚с4794100 2.1 1014279
05:00−12˚ссз259699 0.1 1015198
08:00−12˚ссз249697 0.3 1016121
11:00−10˚ссз2288100 0.1 1017359
14:00−9˚сз2286100 0.2 1016421
17:00−13˚з2392100 0.0 101835
20:00−13˚зсз3490100 0.0 101879
19 января, вт
вт1923:00−12˚сз2394100 0.1 1019105
02:00−14˚зсз349299 0.1 101966
05:00−15˚з339672 0.0 101955
08:00−14˚зсз359685 0.1 1021164
11:00−11˚зсз3487100 0.1 1021572
14:00−10˚зсз3484100 0.2 1020677
17:00−13˚з3492100 0.1 102187
20:00−13˚з339494 0.1 102278
20 января, ср
ср2023:00−14˚з239482 0.1 102342
02:00−15˚з239259 0.1 102426
05:00−15˚зюз229238 0.0 102421
08:00−15˚зюз129025 0.0 102521
11:00−10˚юз22800 0.0 1026220
14:00−9˚зюз01770 0.0 1025256
17:00−12˚в23840 0.0 102621
20:00−11˚юв34860 0.0 102758
21 января, чт
чт2123:00−11˚юв44830 0.0 102767
02:00−9˚юв47883 0.0 1026101
05:00−6˚юв589438 0.0 1026191
08:00−4˚юв6119561 0.0 1026248
11:00+1˚ююв6109780 0.0 1025517
14:00+1˚ююв6109990 0.0 1024425
17:00+1˚ююв5109698 0.0 1024236
20:00ююв469877 0.0 1024113